Fort Lawn, SC

2:28 AM EST on February 10, 2016 (GMT -0500)
Lancaster County-McWhirter

Weather History for KLKR - April, 2014

Change the Weather History Date:

Saturday, April 12, 2014

  Actual Average (KCLT) Record (KCLT)
Temperature  
Mean Temperature 63 °F 58 °F  
Max Temperature 80 °F 71 °F 92 °F (1930)
Min Temperature 46 °F 46 °F 29 °F (1973)
Degree Days  
Heating Degree Days 2 7  
Month to date heating degree days 103  
Since 1 July heating degree days 3235  
Cooling Degree Days 0 1  
Month to date cooling degree days 11  
Year to date cooling degree days 16  
Growing Degree Days 13 (Base 50)    
Moisture  
Dew Point 49 °F    
Average Humidity 69    
Maximum Humidity 100    
Minimum Humidity 24    
Precipitation  
Precipitation 0.00 in 0.09 in 1.77 in (1959)
Month to date precipitation 1.25  
Year to date precipitation 11.99  
Snow  
Snow 0.00 in 0.00 in 0.00 in ()
Month to date snowfall 0.0  
Since 1 July snowfall 4.3  
Snow Depth -    
Sea Level Pressure  
Sea Level Pressure 30.17 in    
Wind  
Wind Speed 1 mph (SSW)    
Max Wind Speed 8 mph    
Max Gust Speed -    
Visibility 9 miles    
Events      
T = Trace of Precipitation, MM = Missing Value Source: NWS Daily Summary

Daily Weather History Graph

Daily Weather History Graph

Search for Another Location

Airport or City:

Trip Planner

Search our weather history database for the weather conditions in past years. The results will help you decide how hot, cold, wet, or windy it might be!

Date:

Astronomy

Apr. 12, 2014 Rise Set
Actual Time 6:55 AM EDT 7:53 PM EDT
Civil Twilight 6:29 AM EDT 8:19 PM EDT
Nautical Twilight 5:59 AM EDT 8:49 PM EDT
Astronomical Twilight 5:27 AM EDT 9:21 PM EDT
Moon 5:35 PM EDT (4/12) 5:15 AM EDT (4/12)
Length of Visible Light 13h 49m
Length of Day
12h 57m
Waxing Gibbous, 93% of the Moon is Illuminated
Apr 12
Waxing Gibbous
Apr 15
Full
Apr 22
Last Quarter
Apr 29
New
May 6
First Quarter

Hourly Weather History & Observations

Time (EDT) Temp. Dew Point Humidity Pressure Visibility Wind Dir Wind Speed Gust Speed Precip Events Conditions
12:15 AM 51.8 °F 51.8 °F 100% 30.16 in 10.0 mi Calm Calm - N/A   Clear
12:35 AM 51.8 °F 51.8 °F 100% 30.17 in 10.0 mi Calm Calm - N/A   Clear
12:55 AM 50.0 °F 50.0 °F 100% 30.18 in 10.0 mi Calm Calm - N/A   Clear
1:15 AM 50.0 °F 50.0 °F 100% 30.17 in 10.0 mi Calm Calm - N/A   Clear
1:35 AM 50.0 °F 50.0 °F 100% 30.17 in 10.0 mi Calm Calm - N/A   Clear
1:55 AM 50.0 °F 50.0 °F 100% 30.17 in 10.0 mi Calm Calm - N/A   Clear
2:15 AM 50.0 °F 50.0 °F 100% 30.17 in 10.0 mi Calm Calm - N/A   Clear
2:35 AM 50.0 °F 50.0 °F 100% 30.16 in 10.0 mi Calm Calm - N/A   Clear
2:55 AM 51.8 °F 51.8 °F 100% 30.15 in 10.0 mi Calm Calm - N/A   Clear
3:15 AM 51.8 °F 51.8 °F 100% 30.15 in 10.0 mi Calm Calm - N/A   Clear
3:35 AM 50.0 °F 50.0 °F 100% 30.15 in 10.0 mi Calm Calm - N/A   Clear
3:55 AM 50.0 °F 50.0 °F 100% 30.15 in 10.0 mi Calm Calm - N/A   Clear
4:15 AM 50.0 °F 50.0 °F 100% 30.15 in 10.0 mi Calm Calm - N/A   Clear
4:35 AM 50.0 °F 50.0 °F 100% 30.15 in 7.0 mi Calm Calm - N/A   Clear
4:55 AM 48.2 °F 48.2 °F 100% 30.15 in 7.0 mi Calm Calm - N/A   Clear
5:15 AM 48.2 °F 48.2 °F 100% 30.16 in 5.0 mi Calm Calm - N/A   Clear
5:35 AM 48.2 °F 48.2 °F 100% 30.16 in 6.0 mi Calm Calm - N/A   Clear
5:55 AM 46.4 °F 46.4 °F 100% 30.17 in 5.0 mi Calm Calm - N/A   Clear
6:15 AM 46.4 °F 46.4 °F 100% 30.17 in 7.0 mi Calm Calm - N/A   Clear
6:35 AM 46.4 °F 46.4 °F 100% 30.17 in 5.0 mi Calm Calm - N/A   Clear
6:55 AM 46.4 °F 46.4 °F 100% 30.18 in 3.0 mi Calm Calm - N/A   Clear
7:15 AM 46.4 °F 46.4 °F 100% 30.19 in 4.0 mi Calm Calm - N/A   Clear
7:35 AM 46.4 °F 46.4 °F 100% 30.20 in 3.0 mi Calm Calm - N/A   Clear
7:55 AM 46.4 °F 46.4 °F 100% 30.20 in 7.0 mi Calm Calm - N/A   Clear
8:15 AM 48.2 °F 48.2 °F 100% 30.20 in 5.0 mi Calm Calm - N/A   Clear
8:35 AM 50.0 °F 50.0 °F 100% 30.21 in 7.0 mi Calm Calm - N/A   Clear
8:55 AM 55.4 °F 55.4 °F 100% 30.20 in 10.0 mi Calm Calm - N/A   Clear
9:15 AM 59.0 °F 55.4 °F 88% 30.21 in 10.0 mi SW 3.5 mph - N/A   Clear
9:35 AM 60.8 °F 55.4 °F 82% 30.21 in 10.0 mi West 3.5 mph - N/A   Clear
9:55 AM 64.4 °F 53.6 °F 68% 30.22 in 10.0 mi Calm Calm - N/A   Clear
10:15 AM 66.2 °F 53.6 °F 64% 30.23 in 10.0 mi Calm Calm - N/A   Clear
10:35 AM 68.0 °F 50.0 °F 52% 30.23 in 10.0 mi West 3.5 mph - N/A   Clear
10:55 AM 69.8 °F 50.0 °F 49% 30.23 in 10.0 mi Calm Calm - N/A   Clear
11:15 AM 71.6 °F 51.8 °F 50% 30.23 in 10.0 mi Calm Calm - N/A   Clear
11:35 AM 75.2 °F 50.0 °F 41% 30.23 in 10.0 mi Calm Calm - N/A   Clear
11:55 AM 75.2 °F 53.6 °F 47% 30.23 in 10.0 mi West 3.5 mph - N/A   Clear
12:15 PM 75.2 °F 50.0 °F 41% 30.22 in 10.0 mi Calm Calm - N/A   Clear
12:35 PM 77.0 °F 48.2 °F 36% 30.21 in 10.0 mi NNE 3.5 mph - N/A   Clear
12:55 PM 77.0 °F 48.2 °F 36% 30.21 in 10.0 mi Calm Calm - N/A   Clear
1:15 PM 77.0 °F 46.4 °F 34% 30.20 in 10.0 mi WSW 4.6 mph - N/A   Clear
1:35 PM 77.0 °F 50.0 °F 39% 30.19 in 10.0 mi West 3.5 mph - N/A   Clear
1:55 PM 77.0 °F 50.0 °F 39% 30.18 in 10.0 mi SW 8.1 mph - N/A   Clear
2:15 PM 78.8 °F 50.0 °F 36% 30.17 in 10.0 mi SW 4.6 mph - N/A   Clear
2:35 PM 78.8 °F 50.0 °F 36% 30.17 in 10.0 mi WSW 5.8 mph - N/A   Clear
2:55 PM 80.6 °F 46.4 °F 30% 30.17 in 10.0 mi SE 3.5 mph - N/A   Clear
3:15 PM 78.8 °F 48.2 °F 34% 30.16 in 10.0 mi West 5.8 mph - N/A   Clear
3:35 PM 80.6 °F 46.4 °F 30% 30.14 in 10.0 mi SW 6.9 mph - N/A   Clear
3:55 PM 80.6 °F 44.6 °F 28% 30.14 in 10.0 mi ESE 3.5 mph - N/A   Clear
4:15 PM 80.6 °F 42.8 °F 26% 30.13 in 10.0 mi SSE 5.8 mph - N/A   Clear
4:35 PM 80.6 °F 42.8 °F 26% 30.12 in 10.0 mi South 5.8 mph - N/A   Clear
5:15 PM 80.6 °F 42.8 °F 26% 30.12 in 10.0 mi SSW 4.6 mph - N/A   Clear
5:35 PM 80.6 °F 41.0 °F 24% 30.12 in 10.0 mi SSW 4.6 mph - N/A   Clear
5:55 PM 80.6 °F 44.6 °F 28% 30.12 in 10.0 mi SSE 3.5 mph - N/A   Clear
6:15 PM 78.8 °F 44.6 °F 30% 30.12 in 10.0 mi SSE 4.6 mph - N/A   Clear
6:35 PM 78.8 °F 44.6 °F 30% 30.12 in 10.0 mi South 4.6 mph - N/A   Clear
6:55 PM 77.0 °F 48.2 °F 36% 30.11 in 10.0 mi Calm Calm - N/A   Clear
7:15 PM 75.2 °F 44.6 °F 34% 30.12 in 10.0 mi Calm Calm - N/A   Clear
7:35 PM 73.4 °F 46.4 °F 38% 30.12 in 10.0 mi Calm Calm - N/A   Clear
7:55 PM 71.6 °F 48.2 °F 43% 30.12 in 10.0 mi Calm Calm - N/A   Clear
8:15 PM 66.2 °F 50.0 °F 56% 30.13 in 10.0 mi SE 3.5 mph - N/A   Clear
8:35 PM 66.2 °F 50.0 °F 56% 30.14 in 10.0 mi Calm Calm - N/A   Clear
8:55 PM 64.4 °F 53.6 °F 68% 30.14 in 10.0 mi Calm Calm - N/A   Clear
9:15 PM 62.6 °F 53.6 °F 72% 30.15 in 10.0 mi Calm Calm - N/A   Clear
9:35 PM 60.8 °F 53.6 °F 77% 30.15 in 10.0 mi Calm Calm - N/A   Clear
9:55 PM 60.8 °F 53.6 °F 77% 30.16 in 10.0 mi Calm Calm - N/A   Clear
10:15 PM 59.0 °F 53.6 °F 82% 30.16 in 10.0 mi Calm Calm - N/A   Clear
10:35 PM 59.0 °F 53.6 °F 82% 30.16 in 10.0 mi Calm Calm - N/A   Clear
10:55 PM 59.0 °F 53.6 °F 82% 30.17 in 10.0 mi Calm Calm - N/A   Clear
11:15 PM 59.0 °F 53.6 °F 82% 30.16 in 10.0 mi SSE 3.5 mph - N/A   Clear
11:35 PM 64.4 °F 53.6 °F 68% 30.16 in 10.0 mi SSE 3.5 mph - N/A   Clear
11:55 PM 64.4 °F 53.6 °F 68% 30.17 in 10.0 mi SSE 3.5 mph - N/A   Clear